| time (UTC) | temp C | wind direction | speed KPH | gust KPH | rain 1hr cm | rain 24hr cm | rain mn cm | humidity % | barometer mb |
| 20260505203710 | 15 | 286 | 20.9 | 27.4 | 0.00 | 0.03 | 0.03 | 40 | 1012.5 |
| 20260505200710 | 14 | 9 | 14.5 | 25.7 | 0.00 | 0.03 | 0.03 | 40 | 1012.9 |
| 20260505195710 | 14 | 315 | 6.4 | 27.4 | 0.00 | 0.03 | 0.03 | 40 | 1013.0 |
| 20260505194711 | 15 | 315 | 16.1 | 29.0 | 0.00 | 0.03 | 0.03 | 44 | 1013.1 |
| 20260505192710 | 15 | 264 | 16.1 | 25.7 | 0.00 | 0.03 | 0.03 | 44 | 1013.3 |
| 20260505191711 | 15 | 35 | 11.3 | 19.3 | 0.00 | 0.03 | 0.03 | 47 | 1013.3 |
| 20260505190711 | 15 | 327 | 11.3 | 25.7 | 0.00 | 0.03 | 0.03 | 42 | 1013.4 |
| 20260505185711 | 15 | 317 | 11.3 | 22.5 | 0.00 | 0.03 | 0.03 | 45 | 1013.3 |
| 20260505184711 | 13 | 325 | 11.3 | 20.9 | 0.00 | 0.03 | 0.03 | 44 | 1013.3 |
| 20260505182710 | 13 | 324 | 14.5 | 20.9 | 0.00 | 0.03 | 0.03 | 45 | 1013.5 |
| 20260505175710 | 13 | 309 | 9.7 | 22.5 | 0.00 | 0.03 | 0.03 | 51 | 1013.7 |
| 20260505174710 | 13 | 13 | 8.0 | 19.3 | 0.00 | 0.03 | 0.03 | 45 | 1013.8 |
| 20260505173710 | 12 | 308 | 6.4 | 19.3 | 0.00 | 0.03 | 0.03 | 49 | 1013.9 |
| 20260505172710 | 12 | 306 | 12.9 | 24.1 | 0.00 | 0.03 | 0.03 | 48 | 1014.2 |
| 20260505171711 | 12 | 288 | 8.0 | 19.3 | 0.00 | 0.03 | 0.03 | 45 | 1014.1 |
| 20260505170710 | 11 | 336 | 4.8 | 12.9 | 0.00 | 0.03 | 0.03 | 48 | 1014.0 |
| 20260505165710 | 12 | 298 | 8.0 | 14.5 | 0.00 | 0.03 | 0.03 | 56 | 1014.0 |
| 20260505163710 | 10 | 336 | 8.0 | 14.5 | 0.00 | 0.03 | 0.03 | 54 | 1014.0 |
| 20260505162710 | 11 | 336 | 8.0 | 19.3 | 0.00 | 0.03 | 0.03 | 56 | 1014.2 |
| 20260505161710 | 11 | 315 | 4.8 | 12.9 | 0.00 | 0.03 | 0.03 | 53 | 1014.1 |
| 20260505160710 | 10 | 297 | 4.8 | 9.7 | 0.00 | 0.03 | 0.03 | 55 | 1014.1 |
| 20260505152710 | 10 | 52 | 4.8 | 12.9 | 0.00 | 0.03 | 0.03 | 55 | 1013.3 |
| 20260505151710 | 10 | 15 | 3.2 | 11.3 | 0.00 | 0.03 | 0.03 | 60 | 1013.3 |
| 20260505150710 | 10 | 322 | 8.0 | 14.5 | 0.00 | 0.03 | 0.03 | 60 | 1013.3 |
| 20260505124711 | 6 | 325 | 3.2 | 4.8 | 0.00 | 0.03 | 0.03 | 73 | 1011.6 |
| 20260505122711 | 6 | 327 | 3.2 | 8.0 | 0.00 | 0.03 | 0.03 | 73 | 1011.3 |
| 20260505121710 | 6 | 323 | 3.2 | 4.8 | 0.00 | 0.03 | 0.03 | 73 | 1011.1 |
| 20260505120710 | 6 | 329 | 3.2 | 4.8 | 0.00 | 0.03 | 0.03 | 74 | 1010.9 |
| 20260505115710 | 6 | 9 | 1.6 | 3.2 | 0.00 | 0.03 | 0.03 | 72 | 1010.6 |
| 20260505114710 | 6 | 13 | 0.0 | 3.2 | 0.00 | 0.03 | 0.03 | 70 | 1010.4 |
| 20260505113711 | 6 | 15 | 1.6 | 4.8 | 0.00 | 0.03 | 0.03 | 68 | 1010.3 |
| 20260505112711 | 6 | 5 | 1.6 | 4.8 | 0.00 | 0.03 | 0.03 | 68 | 1010.1 |
| 20260505111711 | 7 | 17 | 3.2 | 4.8 | 0.00 | 0.03 | 0.03 | 68 | 1010.3 |
| 20260505101710 | 7 | 16 | 3.2 | 4.8 | 0.00 | 0.03 | 0.03 | 70 | 1010.1 |
| 20260505100710 | 7 | 9 | 1.6 | 4.8 | 0.00 | 0.03 | 0.03 | 68 | 1010.3 |
| 20260505095710 | 8 | 9 | 1.6 | 8.0 | 0.00 | 0.03 | 0.03 | 67 | 1010.2 |
| 20260505094710 | 8 | 17 | 4.8 | 9.7 | 0.00 | 0.03 | 0.03 | 67 | 1010.1 |
| 20260505093711 | 8 | 28 | 3.2 | 8.0 | 0.00 | 0.03 | 0.03 | 68 | 1010.1 |
| 20260505091710 | 8 | 30 | 4.8 | 12.9 | 0.00 | 0.03 | 0.03 | 76 | 1010.1 |
| 20260505090711 | 8 | 336 | 3.2 | 9.7 | 0.00 | 0.03 | 0.03 | 82 | 1010.1 |
| 20260505085711 | 8 | 42 | 3.2 | 3.2 | 0.00 | 0.03 | 0.03 | 82 | 1009.9 |
| 20260505083711 | 8 | 42 | 1.6 | 3.2 | 0.00 | 0.03 | 0.03 | 81 | 1009.6 |
| 20260505082710 | 8 | 42 | 1.6 | 3.2 | 0.00 | 0.03 | 0.03 | 81 | 1009.5 |
| 20260505080711 | 8 | 42 | 0.0 | 3.2 | 0.00 | 0.03 | 0.03 | 80 | 1009.3 |
| 20260505075710 | 9 | 42 | 0.0 | 1.6 | 0.00 | 0.03 | 0.03 | 79 | 1009.4 |
| 20260505074710 | 9 | 42 | 0.0 | 3.2 | 0.00 | 0.03 | 0.03 | 79 | 1009.5 |
| 20260505072711 | 9 | 42 | 0.0 | 3.2 | 0.00 | 0.03 | 0.03 | 79 | 1009.2 |
| 20260505071710 | 9 | 42 | 0.0 | 1.6 | 0.00 | 0.03 | 0.03 | 79 | 1009.0 |
| 20260505070711 | 9 | 42 | 0.0 | 3.2 | 0.00 | 0.03 | 0.03 | 79 | 1008.9 |
| 20260505065711 | 9 | 42 | 1.6 | 1.6 | 0.00 | 0.03 | 0.03 | 78 | 1008.8 |
| 20260505064712 | 9 | 42 | 0.0 | 0.0 | 0.00 | 0.03 | 0.03 | 76 | 1008.8 |
| 20260505063711 | 9 | 42 | 0.0 | 0.0 | 0.03 | 0.03 | 0.03 | 76 | 1008.6 |
| 20260505062710 | 9 | 42 | 0.0 | 0.0 | 0.03 | 0.03 | 0.03 | 76 | 1008.5 |
| 20260505061710 | 9 | 42 | 0.0 | 3.2 | 0.03 | 0.03 | 0.03 | 77 | 1008.3 |
| 20260505060710 | 10 | 42 | 0.0 | 0.0 | 0.03 | 0.03 | 0.03 | 76 | 1008.3 |
| 20260505054710 | 10 | 42 | 0.0 | 0.0 | 0.03 | 0.03 | 0.03 | 73 | 1008.6 |
| 20260505051710 | 10 | 35 | 1.6 | 4.8 | 0.00 | 0.00 | 0.00 | 73 | 1008.6 |
| 20260505050711 | 10 | 41 | 0.0 | 3.2 | 0.00 | 0.00 | 0.00 | 73 | 1008.8 |
| 20260505040711 | 11 | 0 | 8.0 | 19.3 | 0.00 | 0.00 | 0.00 | 63 | 1008.7 |
| 20260505033711 | 11 | 15 | 3.2 | 4.8 | 0.00 | 0.00 | 0.00 | 62 | 1009.5 |
| 20260505031710 | 12 | 9 | 8.0 | 19.3 | 0.00 | 0.00 | 0.00 | 58 | 1009.0 |
| 20260505030710 | 12 | 329 | 8.0 | 20.9 | 0.00 | 0.00 | 0.00 | 55 | 1009.2 |
| 20260505025710 | 12 | 336 | 8.0 | 20.9 | 0.00 | 0.00 | 0.00 | 50 | 1008.7 |
| 20260505024711 | 12 | 347 | 9.7 | 22.5 | 0.00 | 0.00 | 0.00 | 47 | 1008.6 |
| 20260505022710 | 12 | 5 | 9.7 | 27.4 | 0.00 | 0.00 | 0.00 | 45 | 1007.7 |
| 20260505021710 | 12 | 323 | 14.5 | 24.1 | 0.00 | 0.00 | 0.00 | 46 | 1007.5 |
| 20260505020710 | 13 | 288 | 16.1 | 29.0 | 0.00 | 0.00 | 0.00 | 44 | 1007.5 |
| 20260505015710 | 13 | 5 | 14.5 | 32.2 | 0.00 | 0.00 | 0.00 | 44 | 1007.4 |
| 20260505014710 | 13 | 336 | 14.5 | 29.0 | 0.00 | 0.00 | 0.00 | 44 | 1007.4 |
| 20260505013710 | 13 | 336 | 22.5 | 32.2 | 0.00 | 0.00 | 0.00 | 43 | 1007.3 |
| 20260505012710 | 14 | 36 | 11.3 | 27.4 | 0.00 | 0.00 | 0.00 | 43 | 1006.9 |
| 20260505011711 | 14 | 0 | 16.1 | 35.4 | 0.00 | 0.00 | 0.00 | 43 | 1006.5 |
| 20260505010710 | 15 | 333 | 16.1 | 32.2 | 0.00 | 0.00 | 0.00 | 44 | 1006.3 |
| 20260505005711 | 15 | 0 | 16.1 | 32.2 | 0.00 | 0.00 | 0.00 | 43 | 1006.3 |
| 20260505004710 | 15 | 1 | 16.1 | 33.8 | 0.00 | 0.00 | 0.00 | 43 | 1006.0 |
| 20260505003710 | 16 | 17 | 20.9 | 35.4 | 0.00 | 0.00 | 0.00 | 42 | 1005.9 |
| 20260505002710 | 16 | 9 | 22.5 | 33.8 | 0.00 | 0.00 | 0.00 | 40 | 1005.6 |
| 20260505001710 | 17 | 334 | 19.3 | 33.8 | 0.00 | 0.00 | 0.00 | 38 | 1005.6 |
| 20260505000710 | 17 | 13 | 16.1 | 33.8 | 0.00 | 0.00 | 0.00 | 37 | 1005.8 |
| 20260504235711 | 18 | 15 | 19.3 | 38.6 | 0.00 | 0.00 | 0.00 | 35 | 1005.8 |
| 20260504234711 | 19 | 5 | 20.9 | 41.8 | 0.00 | 0.00 | 0.00 | 33 | 1005.8 |
| 20260504233711 | 20 | 15 | 16.1 | 32.2 | 0.00 | 0.00 | 0.00 | 33 | 1005.4 |
| 20260504232710 | 20 | 357 | 20.9 | 33.8 | 0.00 | 0.00 | 0.00 | 31 | 1005.2 |
| 20260504231710 | 21 | 8 | 14.5 | 29.0 | 0.00 | 0.00 | 0.00 | 32 | 1004.9 |
| 20260504230710 | 21 | 296 | 16.1 | 25.7 | 0.00 | 0.00 | 0.00 | 32 | 1004.7 |
| 20260504225710 | 21 | 20 | 17.7 | 37.0 | 0.00 | 0.00 | 0.00 | 34 | 1004.5 |
| 20260504224710 | 21 | 317 | 19.3 | 32.2 | 0.00 | 0.00 | 0.00 | 31 | 1004.3 |
| 20260504223710 | 21 | 313 | 19.3 | 27.4 | 0.00 | 0.00 | 0.00 | 29 | 1004.2 |
| 20260504221710 | 21 | 300 | 16.1 | 37.0 | 0.00 | 0.00 | 0.00 | 30 | 1004.1 |
| 20260504220711 | 22 | 9 | 16.1 | 29.0 | 0.00 | 0.00 | 0.00 | 30 | 1003.9 |
| 20260504215710 | 22 | 333 | 14.5 | 33.8 | 0.00 | 0.00 | 0.00 | 33 | 1003.8 |
| 20260504214711 | 22 | 319 | 16.1 | 33.8 | 0.00 | 0.00 | 0.00 | 31 | 1003.6 |
| 20260504212711 | 23 | 10 | 19.3 | 32.2 | 0.00 | 0.00 | 0.00 | 32 | 1003.5 |
| 20260504211710 | 23 | 334 | 16.1 | 32.2 | 0.00 | 0.00 | 0.00 | 32 | 1003.6 |
| 20260504210710 | 22 | 327 | 20.9 | 33.8 | 0.00 | 0.00 | 0.00 | 32 | 1003.6 |
| 20260504205710 | 22 | 42 | 17.7 | 29.0 | 0.00 | 0.00 | 0.00 | 35 | 1003.3 |